Back to catalog

FENGYUN 1C DEB

AlivePO
NORAD 29982·DEBRIS·🇨🇳 China

Launched May 10, 1999 from Taiyuan Satellite Launch Center

Loading…

Next Passes (next 24 hours)

TLE

FreshSource: Space-Track

Epoch: Sep 14, 2026, 14:56 UTC

1 29982U 99025LG  26257.62239391  .00001652  00000-0  26661-3 0  9990
2 29982  99.3832 124.4826 0118921 166.5057 213.3169 14.68568441 43318

Track FENGYUN 1C DEB in real time with AllMySat

Download on the App Store